N2RDT Weather Reports


time (UTC)temp
C
wind
direction
speed
KPH
gust
KPH
rain 1hr
cm
rain 24hr
cm
rain mn
cm
humidity
%
barometer
mb
20260508010520 11 62 0.0 0.0 0.00 0.97 0.97 95 1011.8
20260508010017 11 77 0.0 1.6 0.00 0.97 0.97 95 1011.7
20260508005514 11 16 0.0 1.6 0.00 0.97 0.97 95 1011.5
20260508005011 12 139 0.0 1.6 0.00 0.97 0.97 95 1011.4
20260508004507 12 290 0.0 3.2 0.00 0.97 0.97 95 1011.3
20260508004004 12 356 0.0 0.0 0.00 0.97 0.97 95 1011.5
20260508003500 11 47 3.2 4.8 0.00 0.97 0.97 95 1011.5
20260508002958 12 33 1.6 3.2 0.00 0.97 0.97 95 1011.5
20260508002453 12 35 1.6 4.8 0.00 0.97 0.97 95 1011.5
20260508001950 12 220 0.0 1.6 0.00 0.97 0.97 95 1011.8
20260508001446 12 267 0.0 0.0 0.00 0.97 0.97 95 1011.7
20260508000942 12 305 0.0 0.0 0.00 0.97 0.97 95 1011.8
20260508000438 12 165 0.0 3.2 0.00 0.97 0.97 95 1011.7
20260507235936 12 242 0.0 0.0 0.00 0.97 0.97 94 1011.3
20260507235432 12 145 0.0 1.6 0.00 0.97 0.97 94 1011.2
20260507234930 12 273 3.2 4.8 0.00 0.97 0.97 94 1011.1
20260507234426 12 37 0.0 3.2 0.00 0.97 0.97 93 1010.9
20260507233923 12 279 0.0 1.6 0.00 0.97 0.97 93 1010.8
20260507233420 12 5 4.8 6.4 0.00 0.97 0.97 93 1010.3
20260507232919 12 41 3.2 3.2 0.00 0.97 0.97 93 1010.3
20260507232414 12 46 4.8 4.8 0.00 0.97 0.97 93 1010.4
20260507231912 12 46 4.8 4.8 0.00 0.97 0.97 93 1010.4
20260507231408 12 36 4.8 8.0 0.00 0.97 0.97 93 1010.6
20260507230904 12 25 3.2 3.2 0.00 0.97 0.97 93 1010.6
20260507230402 12 332 0.0 6.4 0.00 0.97 0.97 93 1010.6
20260507225902 12 29 3.2 6.4 0.00 0.97 0.97 93 1010.5
20260507225359 12 264 3.2 6.4 0.00 0.97 0.97 93 1010.3
20260507224855 12 353 8.0 8.0 0.00 0.97 0.97 93 1010.4
20260507224351 12 349 3.2 8.0 0.00 0.97 0.97 93 1010.5
20260507223847 12 6 3.2 3.2 0.00 0.97 0.97 93 1010.6
20260507223344 12 287 0.0 4.8 0.00 0.97 0.97 93 1010.5
20260507222841 12 237 0.0 3.2 0.00 0.97 0.97 93 1010.8
20260507222337 12 295 3.2 4.8 0.00 0.97 0.97 93 1010.8
20260507221834 12 45 1.6 3.2 0.00 0.97 0.97 93 1010.9
20260507221331 12 287 1.6 3.2 0.00 0.97 0.97 93 1010.6
20260507220827 12 201 3.2 6.4 0.00 0.97 0.97 93 1010.6
20260507220325 12 24 3.2 3.2 0.00 0.97 0.97 93 1010.4
20260507215821 12 350 3.2 4.8 0.00 0.97 0.97 92 1010.7
20260507215319 12 50 0.0 4.8 0.00 0.97 0.97 92 1010.9
20260507214816 12 77 0.0 6.4 0.00 0.97 0.97 92 1010.5
20260507214314 12 24 3.2 9.7 0.00 0.97 0.97 92 1010.5
20260507213814 12 286 0.0 6.4 0.00 0.97 0.97 92 1010.5
20260507213311 12 320 0.0 4.8 0.00 0.97 0.97 92 1010.4
20260507212808 12 326 3.2 9.7 0.00 0.97 0.97 92 1010.4
20260507212307 12 243 1.6 6.4 0.00 0.97 0.97 93 1010.4
20260507211800 12 339 6.4 12.9 0.00 0.97 0.97 92 1010.3
20260507211257 12 16 0.0 14.5 0.00 0.97 0.97 92 1010.3
20260507210754 12 246 3.2 6.4 0.00 0.97 0.97 92 1010.4
20260507210251 12 2 0.0 8.0 0.00 0.97 0.97 92 1010.1
20260507205747 12 355 4.8 12.9 0.00 0.97 0.97 91 1010.3
20260507205244 12 302 1.6 6.4 0.00 0.97 0.97 91 1010.0
20260507204740 12 354 6.4 9.7 0.00 0.97 0.97 91 1010.1
20260507204238 12 312 3.2 4.8 0.00 0.97 0.97 91 1009.9
20260507203736 12 339 3.2 6.4 0.00 0.97 0.97 90 1010.0
20260507203233 12 311 3.2 6.4 0.00 0.97 0.97 91 1009.9
20260507202729 12 57 6.4 6.4 0.00 0.97 0.97 92 1010.2
20260507202226 12 246 4.8 4.8 0.00 0.97 0.97 93 1010.2
20260507201721 12 113 3.2 3.2 0.00 0.97 0.97 94 1010.0
20260507201218 12 284 3.2 16.1 0.00 0.97 0.97 93 1009.8
20260507200714 12 257 4.8 6.4 0.00 0.97 0.97 94 1009.9
20260507200210 12 296 0.0 14.5 0.00 0.97 0.97 93 1009.9
20260507195706 12 338 8.0 8.0 0.00 0.97 0.97 94 1009.8
20260507195204 12 272 3.2 8.0 0.05 0.97 0.97 93 1009.9
20260507194701 12 16 8.0 8.0 0.05 0.97 0.97 94 1010.1
20260507194156 12 285 3.2 6.4 0.00 0.94 0.94 95 1010.3
20260507193653 12 291 0.0 8.0 0.18 0.94 0.94 95 1010.4
20260507193150 12 31 1.6 6.4 0.48 0.94 0.94 95 1010.2
20260507192646 12 250 3.2 4.8 0.13 0.89 0.89 95 1010.0
20260507192144 12 232 3.2 3.2 0.00 0.86 0.86 95 1009.8
20260507191639 12 272 6.4 6.4 0.05 0.86 0.86 95 1009.5
20260507191136 12 272 6.4 6.4 0.13 0.86 0.86 95 1009.6
20260507190633 12 329 4.8 6.4 0.05 0.86 0.86 95 1009.4
20260507190132 12 320 4.8 9.7 0.00 0.86 0.86 95 1009.6
20260507185630 12 4 6.4 8.0 0.00 0.86 0.86 95 1009.7
20260507185126 12 8 3.2 4.8 0.00 0.86 0.86 95 1009.8
20260507184624 13 234 3.2 6.4 0.00 0.86 0.86 95 1009.6
20260507184122 13 281 1.6 6.4 0.00 0.86 0.86 95 1009.5
20260507183618 13 33 0.0 3.2 0.00 0.86 0.86 96 1009.2
20260507183115 13 233 6.4 9.7 0.00 0.86 0.86 95 1009.1
20260507182611 13 258 8.0 8.0 0.00 0.86 0.86 95 1009.2
20260507182107 13 356 3.2 4.8 0.00 0.86 0.86 95 1009.3
20260507181605 13 173 0.0 3.2 0.00 0.86 0.86 95 1009.4
20260507181101 13 46 1.6 3.2 0.05 0.86 0.86 96 1009.3
20260507180558 13 46 1.6 3.2 0.13 0.86 0.86 96 1009.1
20260507180054 13 254 3.2 3.2 0.18 0.84 0.84 95 1009.7
20260507175550 14 30 3.2 6.4 0.13 0.84 0.84 95 1010.1
20260507175048 14 30 3.2 6.4 0.00 0.81 0.81 95 1010.3
20260507174545 14 273 3.2 9.7 0.00 0.81 0.81 95 1010.0
20260507174043 14 230 1.6 3.2 0.00 0.81 0.81 95 1009.8
20260507173539 14 308 4.8 4.8 0.00 0.81 0.81 95 1009.8
20260507173037 15 325 3.2 8.0 0.00 0.81 0.81 96 1009.1
20260507172532 15 325 3.2 8.0 0.00 0.81 0.81 96 1008.8
20260507172029 15 325 3.2 8.0 0.05 0.81 0.81 96 1009.0
20260507171525 15 337 3.2 4.8 0.13 0.81 0.81 95 1008.7
20260507171023 15 321 4.8 6.4 0.13 0.79 0.79 95 1008.6
20260507170519 15 355 4.8 4.8 0.00 0.76 0.76 95 1009.3
20260507170016 15 355 4.8 4.8 0.05 0.76 0.76 95 1009.2
20260507165512 16 30 1.6 4.8 0.05 0.76 0.76 94 1009.3
20260507165008 16 30 1.6 4.8 0.00 0.76 0.76 94 1009.6
20260507164504 16 30 1.6 4.8 0.00 0.76 0.76 94 1009.7
20260507164001 17 275 4.8 6.4 0.05 0.76 0.76 93 1010.0
20260507163459 17 275 4.8 6.4 0.13 0.76 0.76 93 1010.1
20260507162956 19 286 9.7 11.3 0.05 0.74 0.74 96 1009.8
20260507162451 19 145 0.0 0.0 0.00 0.74 0.74 96 1009.7
20260507161948 19 145 0.0 0.0 0.13 0.74 0.74 96 1009.6
20260507161444 19 342 0.0 3.2 0.18 0.74 0.74 96 1009.7
20260507160941 20 233 0.0 3.2 0.53 0.71 0.71 96 1009.9
20260507160437 20 233 0.0 3.2 0.66 0.69 0.69 96 1009.7
20260507155933 20 233 0.0 3.2 0.36 0.64 0.64 96 1009.6
20260507155429 20 233 0.0 3.2 0.18 0.58 0.58 96 1009.5
20260507154927 20 233 0.0 3.2 0.13 0.56 0.56 96 1009.3
20260507154423 20 233 0.0 3.2 0.05 0.56 0.56 96 1009.3
20260507153921 20 153 3.2 3.2 0.05 0.56 0.56 97 1009.6
20260507153417 20 153 3.2 3.2 0.00 0.53 0.53 97 1009.5
20260507152913 20 153 3.2 3.2 0.05 0.53 0.53 97 1009.4
20260507152410 20 142 0.0 6.4 0.05 0.53 0.53 96 1009.4
20260507151906 20 184 3.2 4.8 0.13 0.51 0.51 96 1009.5
20260507151402 20 184 3.2 4.8 0.18 0.51 0.51 96 1009.8
20260507150859 20 184 3.2 4.8 0.23 0.51 0.51 96 1009.6
20260507150356 20 184 3.2 4.8 0.23 0.48 0.48 96 1009.9
20260507145852 20 184 3.2 4.8 0.23 0.46 0.46 96 1009.8
20260507145348 20 184 3.2 4.8 0.23 0.43 0.43 96 1009.8
20260507144846 20 184 3.2 4.8 0.23 0.43 0.43 96 1009.7
20260507144343 20 184 3.2 4.8 0.18 0.38 0.38 96 1009.8
20260507143839 20 184 3.2 4.8 0.13 0.38 0.38 96 1009.7
20260507143337 20 184 3.2 4.8 0.13 0.36 0.36 96 1009.8
20260507142833 20 177 4.8 4.8 0.05 0.36 0.36 96 1009.7
20260507142329 20 177 4.8 4.8 0.00 0.33 0.33 96 1009.8
20260507141826 20 133 3.2 4.8 0.05 0.33 0.33 96 1009.9
20260507141323 20 138 4.8 6.4 0.13 0.33 0.33 96 1009.9
20260507140819 20 138 4.8 4.8 0.05 0.33 0.33 96 1009.9
20260507140316 19 181 6.4 6.4 0.00 0.33 0.33 96 1009.9
20260507135814 19 181 6.4 6.4 0.00 0.33 0.33 96 1010.1
20260507135311 19 181 6.4 6.4 0.00 0.33 0.33 96 1010.3
20260507134808 19 181 6.4 6.4 0.00 0.33 0.33 96 1010.2
20260507134304 19 181 6.4 6.4 0.00 0.33 0.33 96 1009.9
20260507133759 19 181 6.4 6.4 0.00 0.33 0.33 96 1010.0
20260507133256 19 136 6.4 6.4 0.00 0.33 0.33 97 1010.0
20260507132754 19 136 6.4 6.4 0.00 0.33 0.33 97 1009.9
20260507132250 19 146 6.4 9.7 0.00 0.33 0.33 97 1010.0
20260507131747 19 170 3.2 8.0 0.05 0.33 0.33 97 1009.9
20260507131244 19 139 4.8 6.4 0.00 0.30 0.30 97 1010.1
20260507130741 18 176 6.4 6.4 0.00 0.30 0.30 97 1010.1
20260507130239 18 176 6.4 6.4 0.00 0.30 0.30 97 1010.1
20260507125737 18 176 6.4 6.4 0.00 0.30 0.30 97 1010.2
20260507125235 18 176 6.4 6.4 0.05 0.30 0.30 97 1010.2
20260507124731 18 176 6.4 6.4 0.05 0.30 0.30 97 1010.2
20260507124228 18 176 6.4 6.4 0.00 0.30 0.30 97 1010.3
20260507123726 18 176 6.4 6.4 0.00 0.30 0.30 97 1010.2
20260507123224 18 176 6.4 6.4 0.00 0.30 0.30 97 1010.1
20260507122718 18 176 6.4 6.4 0.00 0.30 0.30 97 1010.2
20260507122215 18 170 4.8 4.8 0.00 0.30 0.30 97 1010.4
20260507121710 18 170 4.8 4.8 0.00 0.30 0.30 97 1010.4
20260507121207 18 170 4.8 4.8 0.00 0.30 0.30 97 1010.5
20260507120703 18 170 4.8 4.8 0.00 0.30 0.30 97 1010.4
20260507120200 18 170 4.8 4.8 0.00 0.30 0.30 97 1010.1
20260507115656 18 170 4.8 4.8 0.00 0.30 0.30 97 1010.6
20260507115152 18 170 4.8 4.8 0.00 0.30 0.30 97 1010.8
20260507114648 18 170 4.8 4.8 0.00 0.30 0.30 97 1010.7
20260507114145 18 170 4.8 4.8 0.00 0.30 0.30 97 1010.7
20260507113643 18 170 4.8 4.8 0.00 0.30 0.30 97 1010.7
20260507113139 18 189 6.4 8.0 0.00 0.30 0.30 97 1010.7
20260507112637 18 190 3.2 8.0 0.00 0.30 0.30 97 1010.7
20260507112133 18 140 3.2 6.4 0.00 0.30 0.30 97 1010.7
20260507111631 18 159 3.2 4.8 0.00 0.30 0.30 97 1010.6
20260507111127 18 204 3.2 6.4 0.00 0.30 0.30 97 1010.6
20260507110624 18 126 4.8 8.0 0.00 0.30 0.30 97 1010.4
20260507110121 18 127 4.8 6.4 0.00 0.30 0.30 97 1010.4
20260507105617 18 158 4.8 8.0 0.00 0.30 0.30 97 1010.3
20260507105113 18 132 1.6 4.8 0.05 0.30 0.30 97 1010.4
20260507104611 18 152 3.2 8.0 0.05 0.30 0.30 97 1010.3
20260507104107 18 158 3.2 3.2 0.00 0.28 0.28 97 1010.2
20260507103603 18 147 4.8 4.8 0.00 0.28 0.28 97 1010.1
20260507103100 18 140 3.2 9.7 0.00 0.28 0.28 97 1010.0
20260507102557 18 167 1.6 3.2 0.00 0.28 0.28 97 1010.0
20260507102053 18 137 6.4 6.4 0.00 0.28 0.28 97 1010.1
20260507101548 18 154 1.6 4.8 0.00 0.28 0.28 97 1010.1
20260507101045 18 102 3.2 4.8 0.00 0.28 0.28 97 1010.2
20260507100542 18 157 3.2 4.8 0.00 0.28 0.28 97 1010.2
20260507100040 18 126 1.6 4.8 0.00 0.28 0.28 97 1010.2
20260507095538 18 143 4.8 4.8 0.00 0.28 0.28 97 1010.3
20260507095034 18 132 3.2 6.4 0.00 0.28 0.28 97 1010.4
20260507094531 18 147 4.8 6.4 0.00 0.28 0.28 97 1010.2
20260507094028 18 142 3.2 6.4 0.00 0.28 0.28 97 1010.1
20260507093525 18 121 1.6 4.8 0.00 0.28 0.28 97 1010.2
20260507093024 18 149 3.2 4.8 0.00 0.28 0.28 97 1010.2
20260507092520 18 128 1.6 4.8 0.00 0.28 0.28 97 1010.2
20260507092017 18 95 1.6 3.2 0.00 0.28 0.28 97 1010.3
20260507091513 18 139 3.2 4.8 0.00 0.28 0.28 97 1010.4
20260507091009 18 140 3.2 3.2 0.00 0.28 0.28 97 1010.3
20260507090505 18 117 1.6 3.2 0.00 0.28 0.28 97 1010.3
20260507090002 18 152 6.4 6.4 0.05 0.28 0.28 97 1010.4
20260507085459 18 144 4.8 6.4 0.05 0.28 0.28 97 1010.5
20260507084956 18 108 3.2 3.2 0.00 0.28 0.28 97 1010.2
20260507084453 18 106 1.6 3.2 0.00 0.28 0.28 97 1010.4
20260507083950 18 91 3.2 4.8 0.00 0.28 0.28 97 1010.8
20260507083446 18 125 3.2 4.8 0.05 0.28 0.28 97 1010.9
20260507082943 18 149 1.6 4.8 0.05 0.28 0.28 97 1011.1
20260507082439 18 138 3.2 4.8 0.00 0.28 0.28 97 1011.0
20260507081935 18 248 0.0 1.6 0.00 0.28 0.28 97 1010.8
20260507081432 18 248 0.0 1.6 0.00 0.28 0.28 97 1010.7
20260507080929 18 248 0.0 1.6 0.00 0.28 0.28 97 1010.7
20260507080425 18 6 0.0 1.6 0.00 0.28 0.28 97 1010.7
20260507075920 18 50 1.6 1.6 0.00 0.28 0.28 97 1010.9
20260507075416 18 165 3.2 3.2 0.00 0.28 0.28 96 1011.2
20260507074913 18 165 3.2 3.2 0.00 0.28 0.28 96 1011.3
20260507074410 18 165 3.2 3.2 0.00 0.28 0.28 96 1011.3
20260507073908 18 160 0.0 1.6 0.00 0.28 0.28 96 1011.1
20260507073404 18 151 0.0 0.0 0.00 0.28 0.28 96 1011.3
20260507072901 18 165 3.2 3.2 0.00 0.28 0.28 96 1011.4
20260507072359 18 127 3.2 3.2 0.00 0.28 0.28 96 1011.1
20260507071856 18 157 0.0 0.0 0.00 0.28 0.28 96 1011.0
20260507071353 18 188 3.2 3.2 0.00 0.28 0.28 96 1011.2
20260507070849 18 288 1.6 1.6 0.00 0.28 0.28 96 1011.0
20260507070347 18 72 1.6 3.2 0.00 0.28 0.28 96 1010.8
20260507065843 18 129 3.2 3.2 0.00 0.28 0.28 96 1011.3
20260507065340 18 146 0.0 3.2 0.00 0.28 0.28 96 1011.6
20260507064837 18 122 3.2 3.2 0.00 0.28 0.28 96 1011.8
20260507064336 18 135 3.2 4.8 0.00 0.28 0.28 96 1011.9
20260507063833 18 134 3.2 3.2 0.00 0.28 0.28 96 1012.0
20260507063330 18 152 4.8 6.4 0.00 0.28 0.28 96 1011.9
20260507062826 18 144 3.2 4.8 0.00 0.28 0.28 95 1011.7
20260507062323 18 117 1.6 3.2 0.00 0.28 0.28 95 1011.6
20260507061822 18 145 4.8 4.8 0.00 0.28 0.28 95 1012.1
20260507061319 18 132 4.8 4.8 0.00 0.28 0.28 95 1012.2
20260507060818 18 139 4.8 6.4 0.00 0.28 0.28 95 1012.1
20260507060314 18 139 1.6 3.2 0.00 0.28 0.28 95 1012.2
20260507055811 18 102 1.6 3.2 0.05 0.28 0.28 95 1011.8
20260507055306 18 220 0.0 3.2 0.05 0.28 0.28 95 1011.9
20260507054802 18 164 1.6 6.4 0.18 0.25 0.25 94 1012.0
20260507054259 18 141 1.6 3.2 0.36 0.25 0.25 94 1011.2
20260507053756 18 72 4.8 4.8 0.48 0.23 0.23 94 1011.6
20260507053254 18 114 4.8 6.4 0.30 0.18 0.18 94 1012.0
20260507052753 18 120 3.2 6.4 0.05 0.15 0.15 93 1012.4
20260507052248 18 149 9.7 9.7 0.05 0.15 0.15 93 1012.4
20260507051747 19 145 4.8 9.7 0.05 0.13 0.13 92 1011.9
20260507051243 19 123 4.8 8.0 0.23 0.13 0.13 92 1011.5
20260507050740 20 123 3.2 9.7 0.23 0.10 0.10 90 1011.2
20260507050237 20 123 3.2 9.7 0.18 0.08 0.08 90 1011.9
20260507045734 20 130 9.7 20.9 0.23 0.08 0.08 89 1012.6
20260507045230 20 131 6.4 19.3 0.18 0.05 0.05 88 1012.9
20260507044727 20 154 4.8 8.0 0.05 0.03 0.03 87 1013.2
20260507044224 20 123 4.8 6.4 0.00 0.03 0.03 87 1013.2
20260507043720 20 123 4.8 6.4 0.00 0.03 0.03 87 1013.3
20260507043217 20 87 1.6 4.8 0.00 0.03 0.03 87 1013.8
20260507042714 20 167 3.2 3.2 0.05 0.03 0.03 87 1013.1
20260507042214 20 149 1.6 3.2 0.05 0.03 0.03 86 1013.3
20260507041712 20 132 1.6 4.8 0.00 0.00 0.00 84 1013.3
20260507041208 -17 0.0 0.0 0.05 0.00 0.00 1013.0
20260507040705 -17 0.0 0.0 0.00 0.00 0.00 1012.6
20260507040201 -17 0.0 0.0 0.00 0.00 0.00 1012.6
20260507035657 -17 0.0 0.0 0.00 0.20 0.20 1012.3
20260507035153 22 153 0.0 0.0 0.00 0.20 0.20 61 1012.4
20260507034650 22 153 0.0 0.0 0.00 0.20 0.20 61 1012.3
20260507034148 22 153 0.0 0.0 0.05 0.20 0.20 61 1012.2
20260507033646 22 153 0.0 0.0 0.05 0.20 0.20 61 1012.3
20260507033143 22 153 0.0 0.0 0.00 0.18 0.18 61 1012.5
20260507032640 22 153 0.0 0.0 0.00 0.18 0.18 61 1012.5
20260507032136 22 153 0.0 0.0 0.00 0.18 0.18 61 1012.5
20260507031633 22 153 0.0 0.0 0.00 0.18 0.18 61 1012.5
20260507031130 22 153 0.0 0.0 0.00 0.18 0.18 61 1012.2
20260507030626 22 153 0.0 0.0 0.00 0.18 0.18 61 1012.2
20260507030124 22 153 0.0 0.0 0.00 0.18 0.18 61 1012.2
20260507025621 22 153 0.0 0.0 0.00 0.18 0.18 61 1012.1
20260507025118 -17 0.0 0.0 0.00 0.18 0.18 1012.1
20260507024616 -17 0.0 0.0 0.00 0.18 0.18 1012.1
20260507024113 -17 0.0 0.0 0.00 0.18 0.18 1012.0
20260507023608 -17 0.0 0.0 0.00 0.18 0.18 1011.9
20260507023106 -17 0.0 0.0 0.00 0.18 0.18 1011.8
20260507022603 -17 0.0 0.0 0.00 0.18 0.18 1011.9
20260507022058 -17 0.0 0.0 0.00 0.18 0.18 1011.9
20260507021555 -17 0.0 0.0 0.00 0.18 0.18 1011.9
20260507021051 -17 0.0 0.0 0.00 0.18 0.18 1011.9
20260507020549 -17 0.0 0.0 0.00 0.18 0.18 1011.9
20260507020045 -17 0.0 0.0 0.00 0.18 0.18 1012.1
20260507015544 -17 0.0 0.0 0.00 0.18 0.18 1011.9
20260507015041 -17 0.0 0.0 0.00 0.18 0.18 1011.9
20260507014537 -17 0.0 0.0 0.00 0.18 0.18 1011.8
20260507014033 -17 0.0 0.0 0.00 0.18 0.18 1012.1
20260507013530 -17 0.0 0.0 0.00 0.18 0.18 1012.0
20260507013027 20 88 0.0 1.6 0.00 0.18 0.18 87 1012.1
20260507012524 20 88 0.0 1.6 0.00 0.18 0.18 87 1011.9
20260507012020 20 88 0.0 1.6 0.00 0.18 0.18 87 1011.9
20260507011518 20 88 0.0 1.6 0.00 0.18 0.18 87 1012.0
20260507011014 20 88 0.0 1.6 0.00 0.18 0.18 87 1012.0